Weather History for CWXC - August, 2013

Change the Weather History Date:

Tuesday, August 6, 2013

  Actual Average Record
Temperature  
Mean Temperature 54 °F -  
Max Temperature 75 °F - - ()
Min Temperature 34 °F - - ()
Degree Days  
Heating Degree Days 10    
Growing Degree Days 4 (Base 50)    
Moisture  
Dew Point 46 °F    
Average Humidity 72    
Maximum Humidity 96    
Minimum Humidity 34    
Precipitation  
Precipitation 0.00 in - - ()
Sea Level Pressure  
Sea Level Pressure 30.01 in    
Wind  
Wind Speed 2 mph ()    
Max Wind Speed 8 mph    
Max Gust Speed -    
T = Trace of Precipitation, MM = Missing Value Source: Averaged Metar Reports

Daily Weather History Graph

Daily Weather History Graph

Search for Another Location

Airport or City:

Trip Planner

Search our weather history database for the weather conditions in past years. The results will help you decide how hot, cold, wet, or windy it might be!

Date:

Astronomy

Aug. 06, 2013 Rise Set
Actual Time 6:24 AM ADT 9:14 PM ADT
Civil Twilight 5:47 AM ADT 9:50 PM ADT
Nautical Twilight 5:01 AM ADT 10:37 PM ADT
Astronomical Twilight 4:04 AM ADT 11:33 PM ADT
Moon 6:17 AM ADT (8/6) 8:39 PM ADT (8/6)
Length of Visible Light 16h 02m
Length of Day
14h 50m
Waning Crescent, 0% of the Moon is Illuminated
Aug 6
Waning Crescent
Aug 6
New
Aug 14
First Quarter
Aug 20
Full
Aug 28
Last Quarter

Hourly Weather History & Observations

Time (ADT) Temp. Dew Point Humidity Pressure Visibility Wind Dir Wind Speed Gust Speed Precip Events Conditions
12:00 AM 43.7 °F 41.9 °F 93% 29.93 in - SSE 2.3 mph - N/A   Unknown
1:00 AM 41.7 °F 40.1 °F 94% 29.94 in - South 2.3 mph - N/A   Unknown
2:00 AM 40.3 °F 38.8 °F 95% 29.95 in - ESE 2.3 mph - N/A   Unknown
3:00 AM 39 °F 37 °F 92% 29.95 in - East 1.2 mph - -  
3:00 AM 38.7 °F 37.4 °F 95% 29.95 in - East 1.2 mph - N/A   Unknown
4:00 AM 37.4 °F 36.1 °F 95% 29.95 in - East 2.3 mph - N/A   Unknown
5:00 AM 36.0 °F 34.7 °F 95% 29.97 in - ESE 2.3 mph - N/A   Unknown
6:00 AM 35.2 °F 34.0 °F 95% 29.98 in - SE 2.3 mph - N/A   Unknown
7:00 AM 35.8 °F 34.5 °F 95% 30.00 in - SSE 2.3 mph - N/A   Unknown
8:00 AM 41.7 °F 40.6 °F 96% 30.02 in - East 1.2 mph - N/A   Unknown
9:00 AM 49 °F 44 °F 79% 30.03 in - North 2.3 mph - -  
9:00 AM 49.1 °F 44.4 °F 84% 30.03 in - North 2.3 mph - N/A   Unknown
10:00 AM 56.7 °F 46.4 °F 69% 30.04 in - NNE 1.2 mph - N/A   Unknown
11:00 AM 63.1 °F 45.1 °F 52% 30.03 in - West 3.5 mph - N/A   Unknown
12:00 PM 66.6 °F 47.5 °F 50% 30.03 in - NNW 2.3 mph - N/A   Unknown
1:00 PM 67.3 °F 49.8 °F 53% 30.03 in - NNW 8.1 mph - N/A   Unknown
2:00 PM 69.6 °F 50.9 °F 51% 30.03 in - NW 4.6 mph - N/A   Unknown
3:00 PM 72 °F 50 °F 34% 30.03 in - West 4.6 mph - -  
3:00 PM 71.6 °F 49.6 °F 46% 30.03 in - West 4.6 mph - N/A   Unknown
4:00 PM 73.9 °F 51.1 °F 45% 30.02 in - WNW 4.6 mph - N/A   Unknown
5:00 PM 74.1 °F 50.4 °F 43% 30.02 in - NW 3.5 mph - N/A   Unknown
6:00 PM 73.4 °F 50.4 °F 44% 30.03 in - SSW 3.5 mph - N/A   Unknown
7:00 PM 73.0 °F 49.6 °F 44% 30.03 in - SSW 3.5 mph - N/A   Unknown
8:00 PM 71.1 °F 53.6 °F 54% 30.04 in - SSW 1.2 mph - N/A   Unknown
9:00 PM 62 °F 56 °F 75% 30.05 in - SSE 1.2 mph - -  
9:00 PM 62.4 °F 56.1 °F 80% 30.05 in - SSE 1.2 mph - N/A   Unknown
10:00 PM 58.1 °F 54.3 °F 87% 30.06 in - South 2.3 mph - N/A   Unknown
11:00 PM 55.8 °F 52.7 °F 89% 30.08 in - SW 1.2 mph - N/A   Unknown